Location: Sternwarte_Laufen
(47.9344°N, 12.9346°E)
Time: 10:51:49
(UTC+02:00)

ISS - Pass Details

Date: 22 May 2018
Orbit: 402 x 407 km, 51.6° (Epoch: 24 May)

Event Time Altitude Azimuth Distance (km) Brightness Sun altitude
Rises 22:59:05 0° 251° (WSW) 2,315 0.2 -16.0°
Reaches altitude 10° 23:01:10 10° 253° (WSW) 1,456 -0.9 -16.1°
Maximum altitude 23:04:26 75° 338° (NNW) 422 -3.7 -16.4°
Drops below altitude 10° 23:07:42 10° 66° (ENE) 1,460 -1.1 -16.7°
Sets 23:09:47 0° 68° (ENE) 2,320 0.0 -16.8°
